Location: Arbon
(43.0005°N, 0.7472°E)
Time: 02:06:59
(UTC+00:00)

Vanguard 3 - Pass Details

Date: 05 December 2020
Orbit: 508 x 3262 km, 33.3° (Epoch: 22 January)

Event Time Altitude Azimuth Distance (km) Brightness Sun altitude
Rises 17:58:29 0° 225° (SW) 3,752 11.6 -17.0°
Reaches altitude 10° 18:02:36 10° 205° (SSW) 2,355 10.0 -17.7°
Maximum altitude 18:05:37 15° 169° (S) 1,740 8.9 -18.2°
Enters shadow 18:07:23 13° 142° (SE) 1,777 8.7 -18.6°
